TimeCST,TemperatureF,Dew PointF,Humidity,Sea Level PressureIn,VisibilityMPH,Wind Direction,Wind SpeedMPH,Gust SpeedMPH,PrecipitationIn,Events,Conditions,WindDirDegrees,DateUTC
12:55 AM,46.4,30.2,53,30.07,10.0,SSE,10.4,-,N/A,,Clear,160,2013-02-18 06:55:00
1:55 AM,48.2,33.8,58,30.07,10.0,SSE,8.1,-,N/A,,Clear,160,2013-02-18 07:55:00
2:15 AM,48.2,33.8,58,30.07,10.0,South,9.2,-,N/A,,Clear,170,2013-02-18 08:15:00
2:35 AM,48.2,33.8,58,30.07,10.0,SSE,8.1,-,N/A,,Clear,160,2013-02-18 08:35:00
2:55 AM,48.2,35.6,62,30.07,10.0,SSE,8.1,-,N/A,,Clear,160,2013-02-18 08:55:00
3:15 AM,46.4,35.6,66,30.07,10.0,SSE,6.9,-,N/A,,Clear,160,2013-02-18 09:15:00
3:35 AM,46.4,35.6,66,30.06,10.0,SSE,8.1,-,N/A,,Clear,160,2013-02-18 09:35:00
3:55 AM,46.4,35.6,66,30.07,10.0,SSE,8.1,-,N/A,,Clear,150,2013-02-18 09:55:00
4:15 AM,46.4,35.6,66,30.07,10.0,SSE,8.1,-,N/A,,Clear,150,2013-02-18 10:15:00
4:35 AM,44.6,35.6,71,30.07,10.0,SSE,8.1,-,N/A,,Clear,160,2013-02-18 10:35:00
4:55 AM,44.6,37.4,76,30.08,10.0,SSE,6.9,-,N/A,,Clear,150,2013-02-18 10:55:00
5:55 AM,46.4,37.4,71,30.07,10.0,SSE,8.1,-,N/A,,Clear,160,2013-02-18 11:55:00
6:55 AM,46.4,37.4,71,30.07,10.0,SE,6.9,-,N/A,,Clear,140,2013-02-18 12:55:00
7:55 AM,46.4,37.4,71,30.08,10.0,SSE,10.4,-,N/A,,Mostly Cloudy,150,2013-02-18 13:55:00
8:55 AM,48.2,39.2,71,30.07,10.0,SSE,10.4,-,N/A,,Mostly Cloudy,150,2013-02-18 14:55:00
9:55 AM,53.6,41.0,62,30.03,10.0,South,13.8,-,N/A,,Scattered Clouds,180,2013-02-18 15:55:00
10:55 AM,55.4,42.8,63,30.01,10.0,South,16.1,-,N/A,,Mostly Cloudy,170,2013-02-18 16:55:00
11:55 AM,55.4,44.6,67,29.97,10.0,SSE,16.1,25.3,N/A,,Overcast,160,2013-02-18 17:55:00
12:55 PM,57.2,44.6,63,29.91,10.0,SSE,18.4,32.2,N/A,,Mostly Cloudy,160,2013-02-18 18:55:00
1:55 PM,53.6,48.2,82,29.88,10.0,SSE,18.4,28.8,N/A,,Overcast,150,2013-02-18 19:55:00
2:55 PM,53.6,48.2,82,29.84,5.0,SSE,12.7,-,N/A,Rain,Light Rain,160,2013-02-18 20:55:00
3:55 PM,53.6,48.2,82,29.82,10.0,SSE,12.7,-,N/A,,Overcast,150,2013-02-18 21:55:00
4:55 PM,55.4,48.2,77,29.78,10.0,SSE,11.5,-,N/A,,Overcast,150,2013-02-18 22:55:00
5:55 PM,53.6,51.8,94,29.77,3.0,SSE,13.8,-,N/A,Rain,Light Rain,150,2013-02-18 23:55:00
6:55 PM,53.6,51.8,94,29.77,3.0,SSE,16.1,-,N/A,Rain,Light Rain,150,2013-02-19 00:55:00
7:55 PM,55.4,53.6,94,29.84,3.0,West,18.4,-,N/A,Rain,Light Rain,270,2013-02-19 01:55:00
8:55 PM,53.6,51.8,94,29.82,3.0,South,9.2,-,N/A,Rain,Light Rain,180,2013-02-19 02:55:00
9:55 PM,53.6,51.8,94,29.86,10.0,SW,11.5,-,N/A,Rain,Light Rain,230,2013-02-19 03:55:00
10:55 PM,50.0,44.6,82,29.92,10.0,West,15.0,-,N/A,Rain,Light Rain,280,2013-02-19 04:55:00
11:55 PM,46.4,42.8,87,29.96,10.0,WNW,13.8,-,N/A,,Overcast,300,2013-02-19 05:55:00